The Dalles, WA

7:50 PM PST on December 10, 2019 (GMT -0800)
Columbia Gorge Regional-The Dalles

Weather History for KDLS - October, 2019

Change the Weather History Date:

Thursday, October 24, 2019

  Actual Average Record
Temperature  
Mean Temperature 50 °F -  
Max Temperature 64 °F 63 °F 76 °F (1959)
Min Temperature 36 °F 40 °F 27 °F (1958)
Degree Days  
Heating Degree Days 15    
Moisture  
Dew Point 38 °F    
Average Humidity 69    
Maximum Humidity 89    
Minimum Humidity 37    
Precipitation  
Precipitation 0.00 in - - ()
Sea Level Pressure  
Sea Level Pressure 30.37 in    
Wind  
Wind Speed 2 mph (SE)    
Max Wind Speed 5 mph    
Max Gust Speed -    
Visibility 9 miles    
Events      
Averages and records for this station are not official NWS values.
T = Trace of Precipitation, MM = Missing Value Source: NWS Daily Summary

Daily Weather History Graph

Daily Weather History Graph

Search for Another Location

Airport or City:

Astronomy

Oct. 24, 2019 Rise Set
Actual Time 7:33 AM PDT 6:03 PM PDT
Civil Twilight 7:02 AM PDT 6:34 PM PDT
Nautical Twilight 6:28 AM PDT 7:08 PM PDT
Astronomical Twilight 5:53 AM PDT 7:43 PM PDT
Moon 2:51 AM PDT (10/24) 4:50 PM PDT (10/24)
Length of Visible Light 11h 31m
Length of Day
10h 30m
Waning Crescent, 16% of the Moon is Illuminated
Oct 24
Waning Crescent
Oct 27
New
Nov 4
First Quarter
Nov 12
Full
Nov 19
Last Quarter

Hourly Weather History & Observations

Time (PDT) Temp. Windchill Dew Point Humidity Pressure Visibility Wind Dir Wind Speed Gust Speed Precip Events Conditions
12:53 AM 41.0 °F 39.0 °F 35.1 °F 79% 30.46 in 10.0 mi East 3.5 mph - N/A   Clear
1:53 AM 41.0 °F 39.0 °F 37.0 °F 86% 30.47 in 10.0 mi ESE 3.5 mph - N/A   Clear
2:53 AM 39.0 °F 36.8 °F 34.0 °F 82% 30.47 in 10.0 mi ESE 3.5 mph - N/A   Clear
3:53 AM 37.9 °F - 35.1 °F 89% 30.46 in 10.0 mi Calm Calm - N/A   Clear
4:53 AM 39.0 °F - 34.0 °F 82% 30.46 in 10.0 mi Calm Calm - N/A   Clear
5:53 AM 36.0 °F 32.1 °F 32.0 °F 86% 30.46 in 10.0 mi ESE 4.6 mph - N/A   Clear
6:53 AM 37.9 °F - 34.0 °F 86% 30.46 in 10.0 mi Calm Calm - N/A   Clear
7:53 AM 37.0 °F - 33.1 °F 86% 30.46 in 10.0 mi Calm Calm - N/A   Clear
8:53 AM 39.9 °F - 35.1 °F 83% 30.47 in 10.0 mi Calm Calm - N/A   Clear
9:53 AM 44.1 °F - 37.0 °F 76% 30.46 in 10.0 mi Calm Calm - N/A   Clear
10:53 AM 48.0 °F - 37.9 °F 68% 30.44 in 10.0 mi Calm Calm - N/A   Clear
11:53 AM 52.0 °F - 39.0 °F 61% 30.41 in 10.0 mi Calm Calm - N/A   Clear
12:53 PM 55.9 °F - 37.9 °F 51% 30.38 in 10.0 mi Calm Calm - N/A   Clear
1:53 PM 59.0 °F - 39.0 °F 48% 30.34 in 10.0 mi Variable 3.5 mph - N/A   Clear
2:53 PM 63.0 °F - 39.0 °F 41% 30.31 in 10.0 mi Calm Calm - N/A   Clear
3:53 PM 64.0 °F - 39.0 °F 40% 30.28 in 10.0 mi Calm Calm - N/A   Clear
4:53 PM 64.9 °F - 37.9 °F 37% 30.27 in 7.0 mi Calm Calm - N/A   Clear
5:53 PM 61.0 °F - 39.9 °F 46% 30.26 in 7.0 mi Calm Calm - N/A   Clear
6:53 PM 54.0 °F - 42.1 °F 64% 30.26 in 7.0 mi Calm Calm - N/A   Clear
7:53 PM 53.1 °F - 43.0 °F 69% 30.26 in 5.0 mi West 3.5 mph - N/A   Haze
8:53 PM 51.1 °F - 42.1 °F 71% 30.26 in 10.0 mi Calm Calm - N/A   Clear
9:53 PM 48.0 °F - 41.0 °F 77% 30.26 in 9.0 mi Calm Calm - N/A   Clear
10:53 PM 48.9 °F - 42.1 °F 77% 30.25 in 10.0 mi SE 3.5 mph - N/A   Clear
11:53 PM 46.0 °F - 39.9 °F 79% 30.25 in 10.0 mi Calm Calm - N/A   Clear